Year,Month,Day,Hour,Minute,Value (Times are PST for temperature in C)
2018,05,06,00,00,12.00
2018,05,06,00,01,12.00
2018,05,06,00,02,12.00
2018,05,06,00,03,12.00
2018,05,06,00,04,12.00
2018,05,06,00,05,12.00
2018,05,06,00,06,12.10
2018,05,06,00,07,12.10
2018,05,06,00,08,12.10
2018,05,06,00,09,12.10
2018,05,06,00,10,12.10
2018,05,06,00,11,12.10
2018,05,06,00,12,12.10
2018,05,06,00,13,12.10
2018,05,06,00,14,12.10
2018,05,06,00,15,12.10
2018,05,06,00,16,12.10
2018,05,06,00,17,12.10
2018,05,06,00,18,12.20
2018,05,06,00,19,12.20
2018,05,06,00,20,12.20
2018,05,06,00,21,12.20
2018,05,06,00,22,12.20
2018,05,06,00,23,12.20
2018,05,06,00,24,12.20
2018,05,06,00,25,12.20
2018,05,06,00,26,12.20
2018,05,06,00,27,12.20
2018,05,06,00,28,12.20
2018,05,06,00,29,12.20
2018,05,06,00,30,12.20
2018,05,06,00,31,12.30
2018,05,06,00,32,12.30
2018,05,06,00,33,12.30
2018,05,06,00,34,12.30
2018,05,06,00,35,12.30
2018,05,06,00,36,12.30
2018,05,06,00,37,12.30
2018,05,06,00,38,12.40
2018,05,06,00,39,12.40
2018,05,06,00,40,12.40
2018,05,06,00,41,12.40
2018,05,06,00,42,12.40
2018,05,06,00,43,12.40
2018,05,06,00,44,12.40
2018,05,06,00,45,12.40
2018,05,06,00,46,12.40
2018,05,06,00,47,12.40
2018,05,06,00,48,12.40
2018,05,06,00,49,12.40
2018,05,06,00,50,12.40
2018,05,06,00,51,12.40
2018,05,06,00,52,12.40
2018,05,06,00,53,12.40
2018,05,06,00,54,12.40
2018,05,06,00,55,12.40
2018,05,06,00,56,12.40
2018,05,06,00,57,12.40
2018,05,06,00,58,12.40
2018,05,06,00,59,12.40
2018,05,06,01,00,12.40
2018,05,06,01,01,12.40
2018,05,06,01,02,12.40
2018,05,06,01,03,12.40
2018,05,06,01,04,12.40
2018,05,06,01,05,12.40
2018,05,06,01,06,12.40
2018,05,06,01,07,12.40
2018,05,06,01,08,12.40
2018,05,06,01,09,12.40
2018,05,06,01,10,12.40
2018,05,06,01,11,12.40
2018,05,06,01,12,12.40
2018,05,06,01,13,12.40
2018,05,06,01,14,12.40
2018,05,06,01,15,12.40
2018,05,06,01,16,12.30
2018,05,06,01,17,12.30
2018,05,06,01,18,12.40
2018,05,06,01,19,12.40
2018,05,06,01,20,12.40
2018,05,06,01,21,12.40
2018,05,06,01,22,12.40
2018,05,06,01,23,12.40
2018,05,06,01,24,12.40
2018,05,06,01,25,12.40
2018,05,06,01,26,12.40
2018,05,06,01,27,12.40
2018,05,06,01,28,12.40
2018,05,06,01,29,12.40
2018,05,06,01,30,12.40
2018,05,06,01,31,12.40
2018,05,06,01,32,12.40
2018,05,06,01,33,12.40
2018,05,06,01,34,12.50
2018,05,06,01,35,12.50
2018,05,06,01,36,12.50
2018,05,06,01,37,12.50
2018,05,06,01,38,12.50
2018,05,06,01,39,12.50
2018,05,06,01,40,12.50
2018,05,06,01,41,12.50
2018,05,06,01,42,12.50
2018,05,06,01,43,12.50
2018,05,06,01,44,12.50
2018,05,06,01,45,12.50
2018,05,06,01,46,12.60
2018,05,06,01,47,12.60
2018,05,06,01,48,12.60
2018,05,06,01,49,12.60
2018,05,06,01,50,12.60
2018,05,06,01,51,12.60
2018,05,06,01,52,12.60
2018,05,06,01,53,12.60
2018,05,06,01,54,12.60
2018,05,06,01,55,12.60
2018,05,06,01,56,12.60
2018,05,06,01,57,12.60
2018,05,06,01,58,12.60
2018,05,06,01,59,12.60
2018,05,06,02,00,12.60
2018,05,06,02,01,12.60
2018,05,06,02,02,12.70
2018,05,06,02,03,12.70
2018,05,06,02,04,12.70
2018,05,06,02,05,12.70
2018,05,06,02,06,12.70
2018,05,06,02,07,12.70
2018,05,06,02,08,12.70
2018,05,06,02,09,12.70
2018,05,06,02,10,12.70
2018,05,06,02,11,12.70
2018,05,06,02,12,12.70
2018,05,06,02,13,12.70
2018,05,06,02,14,12.70
2018,05,06,02,15,12.70
2018,05,06,02,16,12.70
2018,05,06,02,17,12.70
2018,05,06,02,18,12.70
2018,05,06,02,19,12.70
2018,05,06,02,20,12.70
2018,05,06,02,21,12.70
2018,05,06,02,22,12.70
2018,05,06,02,23,12.70
2018,05,06,02,24,12.70
2018,05,06,02,25,12.70
2018,05,06,02,26,12.70
2018,05,06,02,27,12.70
2018,05,06,02,28,12.70
2018,05,06,02,29,12.70
2018,05,06,02,30,12.70
2018,05,06,02,31,12.70
2018,05,06,02,32,12.70
2018,05,06,02,33,12.70
2018,05,06,02,34,12.70
2018,05,06,02,35,12.70
2018,05,06,02,36,12.70
2018,05,06,02,37,12.70
2018,05,06,02,38,12.70
2018,05,06,02,39,12.70
2018,05,06,02,40,12.70
2018,05,06,02,41,12.70
2018,05,06,02,42,12.70
2018,05,06,02,43,12.60
2018,05,06,02,44,12.60
2018,05,06,02,45,12.70
2018,05,06,02,46,12.60
2018,05,06,02,47,12.60
2018,05,06,02,48,12.60
2018,05,06,02,49,12.60
2018,05,06,02,50,12.60
2018,05,06,02,51,12.60
2018,05,06,02,52,12.70
2018,05,06,02,53,12.70
2018,05,06,02,54,12.70
2018,05,06,02,55,12.70
2018,05,06,02,56,12.70
2018,05,06,02,57,12.70
2018,05,06,02,58,12.70
2018,05,06,02,59,12.70
2018,05,06,03,00,12.70
2018,05,06,03,01,12.70
2018,05,06,03,02,12.70
2018,05,06,03,03,12.70
2018,05,06,03,04,12.70
2018,05,06,03,05,12.70
2018,05,06,03,06,12.70
2018,05,06,03,07,12.70
2018,05,06,03,08,12.70
2018,05,06,03,09,12.70
2018,05,06,03,10,12.70
2018,05,06,03,11,12.70
2018,05,06,03,12,12.70
2018,05,06,03,13,12.70
2018,05,06,03,14,12.70
2018,05,06,03,15,12.70
2018,05,06,03,16,12.70
2018,05,06,03,17,12.70
2018,05,06,03,18,12.70
2018,05,06,03,19,12.70
2018,05,06,03,20,12.70
2018,05,06,03,21,12.70
2018,05,06,03,22,12.70
2018,05,06,03,23,12.70
2018,05,06,03,24,12.70
2018,05,06,03,25,12.70
2018,05,06,03,26,12.70
2018,05,06,03,27,12.70
2018,05,06,03,28,12.70
2018,05,06,03,29,12.70
2018,05,06,03,30,12.70
2018,05,06,03,31,12.70
2018,05,06,03,32,12.70
2018,05,06,03,33,12.70
2018,05,06,03,34,12.70
2018,05,06,03,35,12.70
2018,05,06,03,36,12.70
2018,05,06,03,37,12.70
2018,05,06,03,38,12.60
2018,05,06,03,39,12.60
2018,05,06,03,40,12.60
2018,05,06,03,41,12.60
2018,05,06,03,42,12.60
2018,05,06,03,43,12.60
2018,05,06,03,44,12.60
2018,05,06,03,45,12.60
2018,05,06,03,46,12.60
2018,05,06,03,47,12.60
2018,05,06,03,48,12.60
2018,05,06,03,49,12.60
2018,05,06,03,50,12.60
2018,05,06,03,51,12.60
2018,05,06,03,52,12.60
2018,05,06,03,53,12.60
2018,05,06,03,54,12.60
2018,05,06,03,55,12.60
2018,05,06,03,56,12.60
2018,05,06,03,57,12.60
2018,05,06,03,58,12.60
2018,05,06,03,59,12.60
2018,05,06,04,00,12.50
2018,05,06,04,01,12.60
2018,05,06,04,02,12.50
2018,05,06,04,03,12.50
2018,05,06,04,04,12.50
2018,05,06,04,05,12.50
2018,05,06,04,06,12.50
2018,05,06,04,07,12.50
2018,05,06,04,08,12.50
2018,05,06,04,09,12.50
2018,05,06,04,10,12.50
2018,05,06,04,11,12.40
2018,05,06,04,12,12.40
2018,05,06,04,13,12.50
2018,05,06,04,14,12.50
2018,05,06,04,15,12.50
2018,05,06,04,16,12.50
2018,05,06,04,17,12.50
2018,05,06,04,18,12.50
2018,05,06,04,19,12.60
2018,05,06,04,20,12.60
2018,05,06,04,21,12.60
2018,05,06,04,22,12.60
2018,05,06,04,23,12.60
2018,05,06,04,24,12.60
2018,05,06,04,25,12.60
2018,05,06,04,26,12.60
2018,05,06,04,27,12.50
2018,05,06,04,28,12.50
2018,05,06,04,29,12.50
2018,05,06,04,30,12.50
2018,05,06,04,31,12.50
2018,05,06,04,32,12.50
2018,05,06,04,33,12.50
2018,05,06,04,34,12.50
2018,05,06,04,35,12.40
2018,05,06,04,36,12.40
2018,05,06,04,37,12.40
2018,05,06,04,38,12.40
2018,05,06,04,39,12.40
2018,05,06,04,40,12.40
2018,05,06,04,41,12.40
2018,05,06,04,42,12.40
2018,05,06,04,43,12.40
2018,05,06,04,44,12.40
2018,05,06,04,45,12.40
2018,05,06,04,46,12.40
2018,05,06,04,47,12.40
2018,05,06,04,48,12.40
2018,05,06,04,49,12.40
2018,05,06,04,50,12.40
2018,05,06,04,51,12.40
2018,05,06,04,52,12.40
2018,05,06,04,53,12.40
2018,05,06,04,54,12.40
2018,05,06,04,55,12.40
2018,05,06,04,56,12.40
2018,05,06,04,57,12.30
2018,05,06,04,58,12.30
2018,05,06,04,59,12.30
2018,05,06,05,00,12.30
2018,05,06,05,01,12.30
2018,05,06,05,02,12.30
2018,05,06,05,03,12.30
2018,05,06,05,04,12.30
2018,05,06,05,05,12.30
2018,05,06,05,06,12.30
2018,05,06,05,07,12.30
2018,05,06,05,08,12.20
2018,05,06,05,09,12.20
2018,05,06,05,10,12.20
2018,05,06,05,11,12.20
2018,05,06,05,12,12.20
2018,05,06,05,13,12.20
2018,05,06,05,14,12.20
2018,05,06,05,15,12.10
2018,05,06,05,16,12.10
2018,05,06,05,17,12.10
2018,05,06,05,18,12.10
2018,05,06,05,19,12.10
2018,05,06,05,20,12.10
2018,05,06,05,21,12.10
2018,05,06,05,22,12.10
2018,05,06,05,23,12.10
2018,05,06,05,24,12.10
2018,05,06,05,25,12.10
2018,05,06,05,26,12.10
2018,05,06,05,27,12.10
2018,05,06,05,28,12.10
2018,05,06,05,29,12.10
2018,05,06,05,30,12.00
2018,05,06,05,31,12.00
2018,05,06,05,32,12.00
2018,05,06,05,33,12.00
2018,05,06,05,34,12.00
2018,05,06,05,35,11.90
2018,05,06,05,36,11.90
2018,05,06,05,37,11.90
2018,05,06,05,38,11.90
2018,05,06,05,39,11.90
2018,05,06,05,40,11.90
2018,05,06,05,41,11.90
2018,05,06,05,42,11.80
2018,05,06,05,43,11.80
2018,05,06,05,44,11.80
2018,05,06,05,45,11.80
2018,05,06,05,46,11.80
2018,05,06,05,47,11.80
2018,05,06,05,48,11.70
2018,05,06,05,49,11.70
2018,05,06,05,50,11.70
2018,05,06,05,51,11.70
2018,05,06,05,52,11.70
2018,05,06,05,53,11.60
2018,05,06,05,54,11.60
2018,05,06,05,55,11.60
2018,05,06,05,56,11.50
2018,05,06,05,57,11.50
2018,05,06,05,58,11.50
2018,05,06,05,59,11.40
2018,05,06,06,00,11.40
2018,05,06,06,01,11.40
2018,05,06,06,02,11.30
2018,05,06,06,03,11.30
2018,05,06,06,04,11.30
2018,05,06,06,05,11.30
2018,05,06,06,06,11.30
2018,05,06,06,07,11.20
2018,05,06,06,08,11.20
2018,05,06,06,09,11.20
2018,05,06,06,10,11.20
2018,05,06,06,11,11.20
2018,05,06,06,12,11.20
2018,05,06,06,13,11.20
2018,05,06,06,14,11.20
2018,05,06,06,15,11.10
2018,05,06,06,16,11.10
2018,05,06,06,17,11.10
2018,05,06,06,18,11.10
2018,05,06,06,19,11.10
2018,05,06,06,20,11.10
2018,05,06,06,21,11.10
2018,05,06,06,22,11.10
2018,05,06,06,23,11.10
2018,05,06,06,24,11.10
2018,05,06,06,25,11.10
2018,05,06,06,26,11.10
2018,05,06,06,27,11.10
2018,05,06,06,28,11.10
2018,05,06,06,29,11.10
2018,05,06,06,30,11.00
2018,05,06,06,31,11.00
2018,05,06,06,32,11.00
2018,05,06,06,33,11.00
2018,05,06,06,34,11.00
2018,05,06,06,35,10.90
2018,05,06,06,36,10.90
2018,05,06,06,37,10.90
2018,05,06,06,38,10.90
2018,05,06,06,39,10.90
2018,05,06,06,40,10.90
2018,05,06,06,41,10.90
2018,05,06,06,42,10.90
2018,05,06,06,43,10.90
2018,05,06,06,44,11.00
2018,05,06,06,45,11.00
2018,05,06,06,46,11.00
2018,05,06,06,47,11.00
2018,05,06,06,48,11.00
2018,05,06,06,49,11.00
2018,05,06,06,50,11.10
2018,05,06,06,51,11.10
2018,05,06,06,52,11.10
2018,05,06,06,53,11.10
2018,05,06,06,54,11.10
2018,05,06,06,55,11.10
2018,05,06,06,56,11.10
2018,05,06,06,57,11.10
2018,05,06,06,58,11.10
2018,05,06,06,59,11.10
2018,05,06,07,00,11.10
2018,05,06,07,01,11.10
2018,05,06,07,02,11.10
2018,05,06,07,03,11.10
2018,05,06,07,04,11.20
2018,05,06,07,05,11.20
2018,05,06,07,06,11.20
2018,05,06,07,07,11.20
2018,05,06,07,08,11.20
2018,05,06,07,09,11.20
2018,05,06,07,10,11.20
2018,05,06,07,11,11.20
2018,05,06,07,12,11.20
2018,05,06,07,13,11.30
2018,05,06,07,14,11.30
2018,05,06,07,15,11.30
2018,05,06,07,16,11.30
2018,05,06,07,17,11.30
2018,05,06,07,18,11.40
2018,05,06,07,19,11.40
2018,05,06,07,20,11.40
2018,05,06,07,21,11.40
2018,05,06,07,22,11.50
2018,05,06,07,23,11.50
2018,05,06,07,24,11.50
2018,05,06,07,25,11.50
2018,05,06,07,26,11.60
2018,05,06,07,27,11.60
2018,05,06,07,28,11.70
2018,05,06,07,29,11.70
2018,05,06,07,30,11.70
2018,05,06,07,31,11.80
2018,05,06,07,32,11.80
2018,05,06,07,33,11.80
2018,05,06,07,34,11.80
2018,05,06,07,35,11.80
2018,05,06,07,36,11.90
2018,05,06,07,37,11.90
2018,05,06,07,38,11.90
2018,05,06,07,39,12.00
2018,05,06,07,40,12.00
2018,05,06,07,41,12.10
2018,05,06,07,42,12.10
2018,05,06,07,43,12.10
2018,05,06,07,44,12.20
2018,05,06,07,45,12.20
2018,05,06,07,46,12.30
2018,05,06,07,47,12.30
2018,05,06,07,48,12.40
2018,05,06,07,49,12.40
2018,05,06,07,50,12.50
2018,05,06,07,51,12.50
2018,05,06,07,52,12.60
2018,05,06,07,53,12.60
2018,05,06,07,54,12.70
2018,05,06,07,55,12.70
2018,05,06,07,56,12.80
2018,05,06,07,57,12.80
2018,05,06,07,58,12.90
2018,05,06,07,59,13.00
2018,05,06,08,00,13.10
2018,05,06,08,01,13.20
2018,05,06,08,02,13.20
2018,05,06,08,03,13.30
2018,05,06,08,04,13.40
2018,05,06,08,05,13.50
2018,05,06,08,06,13.60
2018,05,06,08,07,13.60
2018,05,06,08,08,13.70
2018,05,06,08,09,13.80
2018,05,06,08,10,13.90
2018,05,06,08,11,13.90
2018,05,06,08,12,14.00
2018,05,06,08,13,14.10
2018,05,06,08,14,14.20
2018,05,06,08,15,14.30
2018,05,06,08,16,14.40
2018,05,06,08,17,14.50
2018,05,06,08,18,14.70
2018,05,06,08,19,14.80
2018,05,06,08,20,15.00
2018,05,06,08,21,15.20
2018,05,06,08,22,15.30
2018,05,06,08,23,15.40
2018,05,06,08,24,15.60
2018,05,06,08,25,15.70
2018,05,06,08,26,16.00
2018,05,06,08,27,16.20
2018,05,06,08,28,16.30
2018,05,06,08,29,16.50
2018,05,06,08,30,16.70
2018,05,06,08,31,16.90
2018,05,06,08,32,17.10
2018,05,06,08,33,17.20
2018,05,06,08,34,17.30
2018,05,06,08,35,17.50
2018,05,06,08,36,17.60
2018,05,06,08,37,17.70
2018,05,06,08,38,17.80
2018,05,06,08,39,17.90
2018,05,06,08,40,17.90
2018,05,06,08,41,18.00
2018,05,06,08,42,18.10
2018,05,06,08,43,18.20
2018,05,06,08,44,18.30
2018,05,06,08,45,18.40
2018,05,06,08,46,18.50
2018,05,06,08,47,18.60
2018,05,06,08,48,18.60
2018,05,06,08,49,18.70
2018,05,06,08,50,18.80
2018,05,06,08,51,18.80
2018,05,06,08,52,18.90
2018,05,06,08,53,19.00
2018,05,06,08,54,19.10
2018,05,06,08,55,19.20
2018,05,06,08,56,19.20
2018,05,06,08,57,19.30
2018,05,06,08,58,19.30
2018,05,06,08,59,19.40
2018,05,06,09,00,19.50
2018,05,06,09,01,19.60
2018,05,06,09,02,19.70
2018,05,06,09,03,19.70
2018,05,06,09,04,19.80
2018,05,06,09,05,19.90
2018,05,06,09,06,19.90
2018,05,06,09,07,20.00
2018,05,06,09,08,20.10
2018,05,06,09,09,20.20
2018,05,06,09,10,20.30
2018,05,06,09,11,20.30
2018,05,06,09,12,20.30
2018,05,06,09,13,20.30
2018,05,06,09,14,20.30
2018,05,06,09,15,20.30
2018,05,06,09,16,20.40
2018,05,06,09,17,20.40
2018,05,06,09,18,20.40
2018,05,06,09,19,20.40
2018,05,06,09,20,20.40
2018,05,06,09,21,20.40
2018,05,06,09,22,20.40
2018,05,06,09,23,20.40
2018,05,06,09,24,20.40
2018,05,06,09,25,20.40
2018,05,06,09,26,20.40
2018,05,06,09,27,20.40
2018,05,06,09,28,20.50
2018,05,06,09,29,20.50
2018,05,06,09,30,20.60
2018,05,06,09,31,20.70
2018,05,06,09,32,20.80
2018,05,06,09,33,20.80
2018,05,06,09,34,20.90
2018,05,06,09,35,20.90
2018,05,06,09,36,21.00
2018,05,06,09,37,21.00
2018,05,06,09,38,21.00
2018,05,06,09,39,21.10
2018,05,06,09,40,21.00
2018,05,06,09,41,21.00
2018,05,06,09,42,20.90
2018,05,06,09,43,20.90
2018,05,06,09,44,20.90
2018,05,06,09,45,20.90
2018,05,06,09,46,21.00
2018,05,06,09,47,21.00
2018,05,06,09,48,21.00
2018,05,06,09,49,21.00
2018,05,06,09,50,21.00
2018,05,06,09,51,21.10
2018,05,06,09,52,21.10
2018,05,06,09,53,21.20
2018,05,06,09,54,21.20
2018,05,06,09,55,21.10
2018,05,06,09,56,21.00
2018,05,06,09,57,20.90
2018,05,06,09,58,20.90
2018,05,06,09,59,20.90
2018,05,06,10,00,20.90
2018,05,06,10,01,21.00
2018,05,06,10,02,21.10
2018,05,06,10,03,21.10
2018,05,06,10,04,21.10
2018,05,06,10,05,21.10
2018,05,06,10,06,21.00
2018,05,06,10,07,21.00
2018,05,06,10,08,21.10
2018,05,06,10,09,21.10
2018,05,06,10,10,21.20
2018,05,06,10,11,21.20
2018,05,06,10,12,21.20
2018,05,06,10,13,21.30
2018,05,06,10,14,21.30
2018,05,06,10,15,21.30
2018,05,06,10,16,21.30
2018,05,06,10,17,21.30
2018,05,06,10,18,21.30
2018,05,06,10,19,21.40
2018,05,06,10,20,21.40
2018,05,06,10,21,21.50
2018,05,06,10,22,21.40
2018,05,06,10,23,21.40
2018,05,06,10,24,21.40
2018,05,06,10,25,21.30
2018,05,06,10,26,21.20
2018,05,06,10,27,21.20
2018,05,06,10,28,21.20
2018,05,06,10,29,21.30
2018,05,06,10,30,21.30
2018,05,06,10,31,21.40
2018,05,06,10,32,21.40
2018,05,06,10,33,21.40
2018,05,06,10,34,21.40
2018,05,06,10,35,21.40
2018,05,06,10,36,21.50
2018,05,06,10,37,21.50
2018,05,06,10,38,21.60
2018,05,06,10,39,21.70
2018,05,06,10,40,21.80
2018,05,06,10,41,21.80
2018,05,06,10,42,21.80
2018,05,06,10,43,21.80
2018,05,06,10,44,21.80
2018,05,06,10,45,21.80
2018,05,06,10,46,21.70
2018,05,06,10,47,21.70
2018,05,06,10,48,21.60
2018,05,06,10,49,21.60
2018,05,06,10,50,21.50
2018,05,06,10,51,21.50
2018,05,06,10,52,21.30
2018,05,06,10,53,21.30
2018,05,06,10,54,21.20
2018,05,06,10,55,21.30
2018,05,06,10,56,21.30
2018,05,06,10,57,21.30
2018,05,06,10,58,21.30
2018,05,06,10,59,21.30
2018,05,06,11,00,21.30
2018,05,06,11,01,21.40
2018,05,06,11,02,21.50
2018,05,06,11,03,21.70
2018,05,06,11,04,21.80
2018,05,06,11,05,21.90
2018,05,06,11,06,22.00
2018,05,06,11,07,22.00
2018,05,06,11,08,22.10
2018,05,06,11,09,22.10
2018,05,06,11,10,22.10
2018,05,06,11,11,22.10
2018,05,06,11,12,22.20
2018,05,06,11,13,22.20
2018,05,06,11,14,22.30
2018,05,06,11,15,22.30
2018,05,06,11,16,22.30
2018,05,06,11,17,22.40
2018,05,06,11,18,22.50
2018,05,06,11,19,22.50
2018,05,06,11,20,22.60
2018,05,06,11,21,22.70
2018,05,06,11,22,22.70
2018,05,06,11,23,22.70
2018,05,06,11,24,22.60
2018,05,06,11,25,22.50
2018,05,06,11,26,22.50
2018,05,06,11,27,22.40
2018,05,06,11,28,22.40
2018,05,06,11,29,22.30
2018,05,06,11,30,22.30
2018,05,06,11,31,22.30
2018,05,06,11,32,22.30
2018,05,06,11,33,22.30
2018,05,06,11,34,22.30
2018,05,06,11,35,22.30
2018,05,06,11,36,22.30
2018,05,06,11,37,22.20
2018,05,06,11,38,22.30
2018,05,06,11,39,22.30
2018,05,06,11,40,22.30
2018,05,06,11,41,22.30
2018,05,06,11,42,22.40
2018,05,06,11,43,22.50
2018,05,06,11,44,22.60
2018,05,06,11,45,22.60
2018,05,06,11,46,22.60
2018,05,06,11,47,22.50
2018,05,06,11,48,22.50
2018,05,06,11,49,22.60
2018,05,06,11,50,22.70
2018,05,06,11,51,22.80
2018,05,06,11,52,22.90
2018,05,06,11,53,22.90
2018,05,06,11,54,22.90
2018,05,06,11,55,22.90
2018,05,06,11,56,22.90
2018,05,06,11,57,22.90
2018,05,06,11,58,22.90
2018,05,06,11,59,22.80
2018,05,06,12,00,22.80
2018,05,06,12,01,22.80
2018,05,06,12,02,22.80
2018,05,06,12,03,22.80
2018,05,06,12,04,22.80
2018,05,06,12,05,22.70
2018,05,06,12,06,22.60
2018,05,06,12,07,22.60
2018,05,06,12,08,22.60
2018,05,06,12,09,22.60
2018,05,06,12,10,22.60
2018,05,06,12,11,22.70
2018,05,06,12,12,22.70
2018,05,06,12,13,22.70
2018,05,06,12,14,22.60
2018,05,06,12,15,22.60
2018,05,06,12,16,22.60
2018,05,06,12,17,22.70
2018,05,06,12,18,22.70
2018,05,06,12,19,22.70
2018,05,06,12,20,22.70
2018,05,06,12,21,22.70
2018,05,06,12,22,22.80
2018,05,06,12,23,22.90
2018,05,06,12,24,22.90
2018,05,06,12,25,23.00
2018,05,06,12,26,23.00
2018,05,06,12,27,22.90
2018,05,06,12,28,22.90
2018,05,06,12,29,22.80
2018,05,06,12,30,22.70
2018,05,06,12,31,22.70
2018,05,06,12,32,22.70
2018,05,06,12,33,22.70
2018,05,06,12,34,22.80
2018,05,06,12,35,22.90
2018,05,06,12,36,23.00
2018,05,06,12,37,22.90
2018,05,06,12,38,23.00
2018,05,06,12,39,23.10
2018,05,06,12,40,23.20
2018,05,06,12,41,23.30
2018,05,06,12,42,23.30
2018,05,06,12,43,23.30
2018,05,06,12,44,23.30
2018,05,06,12,45,23.20
2018,05,06,12,46,23.20
2018,05,06,12,47,23.20
2018,05,06,12,48,23.20
2018,05,06,12,49,23.20
2018,05,06,12,50,23.30
2018,05,06,12,51,23.40
2018,05,06,12,52,23.50
2018,05,06,12,53,23.60
2018,05,06,12,54,23.60
2018,05,06,12,55,23.70
2018,05,06,12,56,23.70
2018,05,06,12,57,23.70
2018,05,06,12,58,23.70
2018,05,06,12,59,23.80
2018,05,06,13,00,23.90
2018,05,06,13,01,24.00
2018,05,06,13,02,24.00
2018,05,06,13,03,23.90
2018,05,06,13,04,23.90
2018,05,06,13,05,23.90
2018,05,06,13,06,23.90
2018,05,06,13,07,23.80
2018,05,06,13,08,23.80
2018,05,06,13,09,23.80
2018,05,06,13,10,23.80
2018,05,06,13,11,23.80
2018,05,06,13,12,23.90
2018,05,06,13,13,23.90
2018,05,06,13,14,24.00
2018,05,06,13,15,24.10
2018,05,06,13,16,24.20
2018,05,06,13,17,24.20
2018,05,06,13,18,24.20
2018,05,06,13,19,24.30
2018,05,06,13,20,24.40
2018,05,06,13,21,24.30
2018,05,06,13,22,24.30
2018,05,06,13,23,24.30
2018,05,06,13,24,24.30
2018,05,06,13,25,24.40
2018,05,06,13,26,24.50
2018,05,06,13,27,24.50
2018,05,06,13,28,24.50
2018,05,06,13,29,24.40
2018,05,06,13,30,24.30
2018,05,06,13,31,24.30
2018,05,06,13,32,24.30
2018,05,06,13,33,24.40
2018,05,06,13,34,24.40
2018,05,06,13,35,24.50
2018,05,06,13,36,24.60
2018,05,06,13,37,24.60
2018,05,06,13,38,24.70
2018,05,06,13,39,24.80
2018,05,06,13,40,24.90
2018,05,06,13,41,25.00
2018,05,06,13,42,25.00
2018,05,06,13,43,25.00
2018,05,06,13,44,24.90
2018,05,06,13,45,24.70
2018,05,06,13,46,24.60
2018,05,06,13,47,24.60
2018,05,06,13,48,24.60
2018,05,06,13,49,24.70
2018,05,06,13,50,24.60
2018,05,06,13,51,24.40
2018,05,06,13,52,24.30
2018,05,06,13,53,24.20
2018,05,06,13,54,24.20
2018,05,06,13,55,24.20
2018,05,06,13,56,24.10
2018,05,06,13,57,24.10
2018,05,06,13,58,24.10
2018,05,06,13,59,24.00
2018,05,06,14,00,24.00
2018,05,06,14,01,23.90
2018,05,06,14,02,23.90
2018,05,06,14,03,23.90
2018,05,06,14,04,24.00
2018,05,06,14,05,24.10
2018,05,06,14,06,24.10
2018,05,06,14,07,24.20
2018,05,06,14,08,24.20
2018,05,06,14,09,24.30
2018,05,06,14,10,24.40
2018,05,06,14,11,24.40
2018,05,06,14,12,24.40
2018,05,06,14,13,24.50
2018,05,06,14,14,24.50
2018,05,06,14,15,24.60
2018,05,06,14,16,24.60
2018,05,06,14,17,24.70
2018,05,06,14,18,24.60
2018,05,06,14,19,24.50
2018,05,06,14,20,24.50
2018,05,06,14,21,24.50
2018,05,06,14,22,24.60
2018,05,06,14,23,24.60
2018,05,06,14,24,24.60
2018,05,06,14,25,24.60
2018,05,06,14,26,24.60
2018,05,06,14,27,24.60
2018,05,06,14,28,24.60
2018,05,06,14,29,24.60
2018,05,06,14,30,24.60
2018,05,06,14,31,24.70
2018,05,06,14,32,24.80
2018,05,06,14,33,24.70
2018,05,06,14,34,24.60
2018,05,06,14,35,24.50
2018,05,06,14,36,24.40
2018,05,06,14,37,24.40
2018,05,06,14,38,24.40
2018,05,06,14,39,24.30
2018,05,06,14,40,24.30
2018,05,06,14,41,24.20
2018,05,06,14,42,24.20
2018,05,06,14,43,24.20
2018,05,06,14,44,24.20
2018,05,06,14,45,24.20
2018,05,06,14,46,24.10
2018,05,06,14,47,24.10
2018,05,06,14,48,24.10
2018,05,06,14,49,24.10
2018,05,06,14,50,24.10
2018,05,06,14,51,24.10
2018,05,06,14,52,24.10
2018,05,06,14,53,24.00
2018,05,06,14,54,24.00
2018,05,06,14,55,24.00
2018,05,06,14,56,24.00
2018,05,06,14,57,24.00
2018,05,06,14,58,24.10
2018,05,06,14,59,24.10
2018,05,06,15,00,24.20
2018,05,06,15,01,24.20
2018,05,06,15,02,24.20
2018,05,06,15,03,24.20
2018,05,06,15,04,24.10
2018,05,06,15,05,24.00
2018,05,06,15,06,23.90
2018,05,06,15,07,23.90
2018,05,06,15,08,23.80
2018,05,06,15,09,23.80
2018,05,06,15,10,23.70
2018,05,06,15,11,23.60
2018,05,06,15,12,23.60
2018,05,06,15,13,23.60
2018,05,06,15,14,23.60
2018,05,06,15,15,23.60
2018,05,06,15,16,23.60
2018,05,06,15,17,23.60
2018,05,06,15,18,23.60
2018,05,06,15,19,23.60
2018,05,06,15,20,23.50
2018,05,06,15,21,23.50
2018,05,06,15,22,23.50
2018,05,06,15,23,23.50
2018,05,06,15,24,23.50
2018,05,06,15,25,23.50
2018,05,06,15,26,23.60
2018,05,06,15,27,23.60
2018,05,06,15,28,23.50
2018,05,06,15,29,23.50
2018,05,06,15,30,23.50
2018,05,06,15,31,23.50
2018,05,06,15,32,23.50
2018,05,06,15,33,23.50
2018,05,06,15,34,23.40
2018,05,06,15,35,23.40
2018,05,06,15,36,23.40
2018,05,06,15,37,23.40
2018,05,06,15,38,23.50
2018,05,06,15,39,23.50
2018,05,06,15,40,23.60
2018,05,06,15,41,23.60
2018,05,06,15,42,23.50
2018,05,06,15,43,23.50
2018,05,06,15,44,23.50
2018,05,06,15,45,23.50
2018,05,06,15,46,23.40
2018,05,06,15,47,23.40
2018,05,06,15,48,23.40
2018,05,06,15,49,23.40
2018,05,06,15,50,23.40
2018,05,06,15,51,23.30
2018,05,06,15,52,23.30
2018,05,06,15,53,23.20
2018,05,06,15,54,23.20
2018,05,06,15,55,23.20
2018,05,06,15,56,23.20
2018,05,06,15,57,23.20
2018,05,06,15,58,23.20
2018,05,06,15,59,23.20
2018,05,06,16,00,23.10
2018,05,06,16,01,23.10
2018,05,06,16,02,23.10
2018,05,06,16,03,23.10
2018,05,06,16,04,23.00
2018,05,06,16,05,23.00
2018,05,06,16,06,22.90
2018,05,06,16,07,22.90
2018,05,06,16,08,22.90
2018,05,06,16,09,22.90
2018,05,06,16,10,22.90
2018,05,06,16,11,22.90
2018,05,06,16,12,22.80
2018,05,06,16,13,22.70
2018,05,06,16,14,22.70
2018,05,06,16,15,22.70
2018,05,06,16,16,22.60
2018,05,06,16,17,22.60
2018,05,06,16,18,22.50
2018,05,06,16,19,22.50
2018,05,06,16,20,22.50
2018,05,06,16,21,22.40
2018,05,06,16,22,22.40
2018,05,06,16,23,22.40
2018,05,06,16,24,22.40
2018,05,06,16,25,22.50
2018,05,06,16,26,22.50
2018,05,06,16,27,22.60
2018,05,06,16,28,22.60
2018,05,06,16,29,22.60
2018,05,06,16,30,22.70
2018,05,06,16,31,22.70
2018,05,06,16,32,22.70
2018,05,06,16,33,22.80
2018,05,06,16,34,22.80
2018,05,06,16,35,22.80
2018,05,06,16,36,22.80
2018,05,06,16,37,22.70
2018,05,06,16,38,22.70
2018,05,06,16,39,22.70
2018,05,06,16,40,22.60
2018,05,06,16,41,22.50
2018,05,06,16,42,22.50
2018,05,06,16,43,22.40
2018,05,06,16,44,22.40
2018,05,06,16,45,22.40
2018,05,06,16,46,22.40
2018,05,06,16,47,22.40
2018,05,06,16,48,22.40
2018,05,06,16,49,22.40
2018,05,06,16,50,22.40
2018,05,06,16,51,22.40
2018,05,06,16,52,22.50
2018,05,06,16,53,22.40
2018,05,06,16,54,22.40
2018,05,06,16,55,22.40
2018,05,06,16,56,22.40
2018,05,06,16,57,22.40
2018,05,06,16,58,22.40
2018,05,06,16,59,22.40
2018,05,06,17,00,22.40
2018,05,06,17,01,22.40
2018,05,06,17,02,22.40
2018,05,06,17,03,22.40
2018,05,06,17,04,22.40
2018,05,06,17,05,22.40
2018,05,06,17,06,22.40
2018,05,06,17,07,22.40
2018,05,06,17,08,22.40
2018,05,06,17,09,22.40
2018,05,06,17,10,22.40
2018,05,06,17,11,22.40
2018,05,06,17,12,22.40
2018,05,06,17,13,22.40
2018,05,06,17,14,22.40
2018,05,06,17,15,22.50
2018,05,06,17,16,22.50
2018,05,06,17,17,22.50
2018,05,06,17,18,22.50
2018,05,06,17,19,22.50